This is the latest recevied weather packets stored in our database for station/object W0AVQ. If no packets are shown the sender has not sent any weather packets the latest 10 day(s).
| Time | Temp. | Humidity | Pressure | Rain* | Wind** | Luminosity | Snow |
|---|---|---|---|---|---|---|---|
| 1777550972 | 9.44° C | 99% | 1020.4 hPa | 0 mm | - | 27 W/m² | - |
| 1777550669 | 7.78° C | 99% | 1020.3 hPa | 0 mm | - | 26 W/m² | - |
| 1777550365 | 7.22° C | 98% | 1020.2 hPa | 0 mm | - | 23 W/m² | - |
| 1777550061 | 7.22° C | 98% | 1019.9 hPa | 0 mm | - | 19 W/m² | - |
| 1777549758 | 6.67° C | 98% | 1019.8 hPa | 0 mm | - | 17 W/m² | - |
| 1777549454 | 6.67° C | 98% | 1019.7 hPa | 0 mm | - | 15 W/m² | - |
| 1777549151 | 6.67° C | 98% | 1019.8 hPa | 0 mm | - | 13 W/m² | - |
| 1777548847 | 6.11° C | 98% | 1019.7 hPa | 0 mm | - | 12 W/m² | - |
| 1777548544 | 6.11° C | 97% | 1019.3 hPa | 0 mm | - | 10 W/m² | - |
| 1777548241 | 6.11° C | 97% | 1019.3 hPa | 0 mm | - | 7 W/m² | - |
| 1777547937 | 6.11° C | 97% | 1019.3 hPa | 0 mm | - | 5 W/m² | - |
| 1777547633 | 6.11° C | 97% | 1019.5 hPa | 0 mm | - | 3 W/m² | - |
| 1777547330 | 6.11° C | 97% | 1019.9 hPa | 0 mm | - | 1 W/m² | - |
| 1777547028 | 6.11° C | 96% | 1019.4 hPa | 0 mm | - | 0 W/m² | - |
| 1777546725 | 6.11° C | 96% | 1019.8 hPa | 0 mm | - | 0 W/m² | - |
| 1777546421 | 6.11° C | 96% | 1019.6 hPa | 0 mm | - | 0 W/m² | - |
| 1777546118 | 6.11° C | 96% | 1019.7 hPa | 0 mm | - | 0 W/m² | - |
| 1777545814 | 6.67° C | 96% | 1019.4 hPa | 0 mm | - | 0 W/m² | - |
| 1777545511 | 6.67° C | 96% | 1019.7 hPa | 0 mm | - | 0 W/m² | - |
| 1777545208 | 6.67° C | 97% | 1019.6 hPa | 0 mm | - | 0 W/m² | - |
| 1777544906 | 7.22° C | 96% | 1019.5 hPa | 0 mm | - | 0 W/m² | - |
| 1777544602 | 6.67° C | 96% | 1019.4 hPa | 0 mm | - | 0 W/m² | - |
| 1777544298 | 6.67° C | 96% | 1019.6 hPa | 0 mm | - | 0 W/m² | - |
| 1777543995 | 7.22° C | 96% | 1019.4 hPa | 0 mm | - | 0 W/m² | - |
| 1777543692 | 7.22° C | 96% | 1019.4 hPa | 0 mm | - | 0 W/m² | - |
* Rain latest hour (hover to see other rain measurements)
** Current wind speed in m/s (hover to see current wind gust speed)